EW5622 Weather Reports


Display with metric or nautical units.
time (UTC)temp
F
wind
direction
speed
MPH
gust
MPH
rain 1hr
in
rain 24hr
in
rain mn
in
humidity
%
barometer
mb
20260904105404 82 230 0.0 69.0 0.00 0.00 0.00 74 1019.1
20260904104503 82 307 0.0 39.0 0.00 0.00 0.00 75 1019.1
20260904103603 82 319 37.0 77.0 0.00 0.00 0.00 76 1018.1
20260904102703 82 307 39.0 40.0 0.00 0.00 0.00 77 1018.1
20260904101805 83 317 0.0 45.0 0.00 0.00 0.00 78 1018.1
20260904100905 83 293 39.0 78.0 0.00 0.00 0.00 79 1018.1
20260904100214 82 291 75.0 78.0 0.00 0.00 0.00 80 1018.1
20260904095403 82 301 39.0 39.0 0.00 0.00 0.00 81 1018.1
20260904094713 82 0 0.0 0.0 0.00 0.00 0.00 84 1018.1
20260904093603 82 0 0.0 0.0 0.00 0.00 0.00 85 1018.1
20260904092914 81 0 0.0 0.0 0.00 0.00 0.00 87 1018.1
20260904091804 78 0 0.0 0.0 0.00 0.00 0.00 90 1018.1
20260904091113 77 0 0.0 0.0 0.00 0.00 0.00 92 1018.1
20260904090005 74 0 0.0 0.0 0.00 0.00 0.00 95 1018.1
20260904085405 74 0 0.0 0.0 0.00 0.00 0.00 96 1018.1
20260904084503 72 0 0.0 0.0 0.00 0.00 0.00 98 1018.1
20260904083814 71 0 0.0 0.0 0.00 0.00 0.00 98 1018.1
20260904082703 69 0 0.0 0.0 0.00 0.00 0.00 98 1018.1
20260904082013 69 0 0.0 0.0 0.00 0.00 0.00 98 1017.1
20260904080905 67 0 0.0 0.0 0.00 0.00 0.00 98 1017.1
20260904080003 66 0 0.0 0.0 0.00 0.00 0.00 98 1017.1
20260904075613 66 0 0.0 0.0 0.00 0.00 0.00 98 1018.1
20260904074503 65 0 0.0 0.0 0.00 0.00 0.00 98 1018.1
20260904073603 64 0 0.0 0.0 0.00 0.00 0.00 98 1017.1
20260904072703 64 0 0.0 0.0 0.00 0.00 0.00 98 1017.1
20260904071803 63 0 0.0 0.0 0.00 0.00 0.00 98 1017.1
20260904070903 63 0 0.0 0.0 0.00 0.00 0.00 98 1017.1
20260904070213 63 0 0.0 0.0 0.00 0.00 0.00 98 1017.1
20260904065403 62 0 0.0 0.0 0.00 0.00 0.00 98 1017.1
20260904064503 62 0 0.0 0.0 0.00 0.00 0.00 98 1017.1
20260904063603 62 0 0.0 0.0 0.00 0.00 0.00 98 1017.1
20260904062704 61 0 0.0 0.0 0.00 0.00 0.00 98 1017.1
20260904061803 61 0 0.0 0.0 0.00 0.00 0.00 98 1017.1
20260904060904 61 0 0.0 0.0 0.00 0.00 0.00 98 1017.1
20260904060003 61 0 0.0 0.0 0.00 0.00 0.00 98 1017.1
20260904055405 61 0 0.0 0.0 0.00 0.00 0.00 98 1017.1
20260904054505 61 0 0.0 0.0 0.00 0.00 0.00 98 1017.1
20260904053815 61 0 0.0 0.0 0.00 0.00 0.00 98 1017.1
20260904052705 61 0 0.0 0.0 0.00 0.00 0.00 98 1017.1
20260904051803 61 0 0.0 0.0 0.00 0.00 0.00 98 1017.1
20260904050904 61 0 0.0 0.0 0.00 0.00 0.00 98 1017.1
20260904050003 61 0 0.0 0.0 0.00 0.00 0.00 98 1017.1
20260904045403 61 0 0.0 0.0 0.00 0.00 0.00 98 1017.1
20260904044505 61 0 0.0 0.0 0.00 0.00 0.00 98 1017.1
20260904043603 61 0 0.0 0.0 0.00 0.00 0.00 98 1017.1
20260904042703 61 0 0.0 0.0 0.00 0.00 0.00 98 1017.1
20260904041803 60 0 0.0 0.0 0.00 0.00 0.00 98 1017.1
20260904040906 60 0 0.0 0.0 0.00 0.00 0.00 98 1017.1
20260904040006 60 0 0.0 0.0 0.00 0.00 0.00 98 1017.1
20260904035614 60 0 0.0 0.0 0.00 0.00 0.00 98 1017.1
20260904034504 61 0 0.0 0.0 0.00 0.00 0.00 98 1017.1
20260904033603 60 0 0.0 0.0 0.00 0.00 0.00 98 1017.1
20260904032703 60 0 0.0 0.0 0.00 0.00 0.00 98 1017.1
20260904032013 61 0 0.0 0.0 0.00 0.00 0.00 98 1018.1
20260904030903 61 0 0.0 0.0 0.00 0.00 0.00 98 1018.1
20260904030003 61 0 0.0 0.0 0.00 0.00 0.00 98 1018.1
20260904025403 60 0 0.0 0.0 0.00 0.00 0.00 98 1018.1
20260904024503 60 0 0.0 0.0 0.00 0.00 0.00 98 1018.1
20260904023604 60 0 0.0 0.0 0.00 0.00 0.00 98 1018.1
20260904022703 59 0 0.0 0.0 0.00 0.00 0.00 98 1018.1
20260904021803 59 0 0.0 0.0 0.00 0.00 0.00 98 1018.1
20260904020905 59 0 0.0 0.0 0.00 0.00 0.00 98 1018.1
20260904020004 59 0 0.0 0.0 0.00 0.00 0.00 98 1018.1
20260904015405 59 0 0.0 0.0 0.00 0.00 0.00 98 1018.1
20260904014504 58 0 0.0 0.0 0.00 0.00 0.00 98 1018.1
20260904013814 58 0 0.0 0.0 0.00 0.00 0.00 98 1019.1
20260904012703 58 0 0.0 0.0 0.00 0.00 0.00 98 1019.1
20260904012012 59 0 0.0 0.0 0.00 0.00 0.00 98 1019.1
20260904010903 59 0 0.0 0.0 0.00 0.00 0.00 98 1019.1
20260904010005 59 0 0.0 0.0 0.00 0.00 0.00 98 1019.1
20260904005403 59 0 0.0 0.0 0.00 0.00 0.00 98 1019.1
20260904004503 59 0 0.0 0.0 0.00 0.00 0.00 98 1019.1
20260904003603 60 0 0.0 0.0 0.00 0.00 0.00 98 1019.1
20260904002915 60 0 0.0 0.0 0.00 0.00 0.00 98 1019.1
20260904002014 60 0 0.0 0.0 0.00 0.00 0.00 98 1019.1
20260904000903 60 0 0.0 0.0 0.00 0.00 0.00 98 1019.1
20260904000003 60 0 0.0 0.0 0.00 0.00 0.00 98 1019.1
20260903235403 61 0 0.0 0.0 0.00 0.00 0.00 98 1019.1
20260903234503 61 0 0.0 0.0 0.00 0.00 0.00 98 1019.1
20260903233604 61 0 0.0 0.0 0.00 0.00 0.00 98 1019.1
20260903232703 62 0 0.0 0.0 0.00 0.00 0.00 97 1019.1
20260903231805 62 0 0.0 0.0 0.00 0.00 0.00 97 1019.1
20260903230905 62 0 0.0 0.0 0.00 0.00 0.00 97 1019.1
20260903230005 62 0 0.0 0.0 0.00 0.00 0.00 97 1019.1
20260903225405 62 0 0.0 0.0 0.00 0.00 0.00 97 1019.1
20260903224715 62 0 0.0 0.0 0.00 0.00 0.00 96 1019.1
20260903223603 63 0 0.0 0.0 0.00 0.00 0.00 96 1020.1
20260903222703 63 0 0.0 0.0 0.00 0.00 0.00 96 1020.1
20260903221805 63 0 0.0 0.0 0.00 0.00 0.00 95 1020.1
20260903220903 64 0 0.0 0.0 0.00 0.00 0.00 95 1020.1
20260903220214 64 0 0.0 0.0 0.00 0.00 0.00 95 1020.1
20260903215403 64 0 0.0 0.0 0.00 0.00 0.00 94 1020.1
20260903214713 64 0 0.0 0.0 0.00 0.00 0.00 94 1020.1
20260903213605 65 0 0.0 0.0 0.00 0.00 0.00 93 1020.1
20260903212703 65 0 0.0 0.0 0.00 0.00 0.00 93 1020.1
20260903212013 65 0 0.0 0.0 0.00 0.00 0.00 93 1020.1
20260903210903 66 0 0.0 0.0 0.00 0.00 0.00 92 1020.1
20260903210003 66 0 0.0 0.0 0.00 0.00 0.00 92 1020.1
20260903205617 66 0 0.0 0.0 0.00 0.00 0.00 92 1020.1
20260903204503 67 0 0.0 0.0 0.00 0.00 0.00 91 1020.1
20260903203603 67 0 0.0 0.0 0.00 0.00 0.00 91 1020.1
20260903202703 68 0 0.0 0.0 0.00 0.00 0.00 91 1020.1
20260903201803 68 0 0.0 0.0 0.00 0.00 0.00 90 1020.1
20260903201114 68 0 0.0 0.0 0.00 0.00 0.00 90 1020.1
20260903200213 69 0 0.0 0.0 0.00 0.00 0.00 89 1020.1
20260903195403 69 0 0.0 0.0 0.00 0.00 0.00 89 1020.1
20260903194503 69 0 0.0 0.0 0.00 0.00 0.00 88 1020.1
20260903193603 70 0 0.0 0.0 0.00 0.00 0.00 87 1020.1
20260903192913 70 0 0.0 0.0 0.00 0.00 0.00 87 1020.1
20260903191805 71 0 0.0 0.0 0.00 0.00 0.00 85 1020.1
20260903190904 71 0 0.0 0.0 0.00 0.00 0.00 84 1020.1
20260903190003 72 0 0.0 0.0 0.00 0.00 0.00 81 1020.1
20260903185614 72 0 0.0 0.0 0.00 0.00 0.00 81 1020.1
20260903184503 72 0 0.0 0.0 0.00 0.00 0.00 79 1020.1
20260903183603 73 0 0.0 0.0 0.00 0.00 0.00 78 1020.1
20260903182703 74 0 0.0 0.0 0.00 0.00 0.00 76 1020.1
20260903181803 74 0 0.0 0.0 0.00 0.00 0.00 74 1020.1
20260903180908 75 0 0.0 0.0 0.00 0.00 0.00 72 1020.1
20260903180214 75 0 0.0 0.0 0.00 0.00 0.00 71 1020.1
20260903175403 75 0 0.0 0.0 0.00 0.00 0.00 70 1020.1
20260903174505 76 360 0.0 2.0 0.00 0.00 0.00 69 1020.1
20260903173603 77 0 0.0 0.0 0.00 0.00 0.00 69 1020.1
20260903172703 77 0 0.0 0.0 0.00 0.00 0.00 68 1020.1
20260903171803 78 360 0.0 26.0 0.00 0.00 0.00 67 1020.1
20260903170905 79 360 0.0 3.0 0.00 0.00 0.00 66 1020.1
20260903170214 80 347 0.0 3.0 0.00 0.00 0.00 66 1020.1
20260903165405 82 351 2.0 5.0 0.00 0.00 0.00 65 1020.1
20260903164505 82 357 0.0 3.0 0.00 0.00 0.00 64 1020.1
20260903163603 83 6 0.0 3.0 0.00 0.00 0.00 64 1020.1
20260903162916 83 337 0.0 2.0 0.00 0.00 0.00 65 1020.1
20260903161805 83 356 0.0 4.0 0.00 0.00 0.00 64 1020.1
20260903160903 84 359 1.0 4.0 0.00 0.00 0.00 62 1021.1
20260903160003 86 10 4.0 6.0 0.00 0.00 0.00 61 1021.1
20260903155403 87 352 0.0 3.0 0.00 0.00 0.00 60 1021.1
20260903154505 87 0 0.0 0.0 0.00 0.00 0.00 60 1021.1
20260903153814 88 22 0.0 4.0 0.00 0.00 0.00 60 1021.1
20260903152705 87 9 0.0 7.0 0.00 0.00 0.00 60 1021.1
20260903151805 87 345 0.0 5.0 0.00 0.00 0.00 60 1021.1
20260903150903 88 360 3.0 4.0 0.00 0.00 0.00 60 1021.1
20260903150213 88 350 3.0 18.0 0.00 0.00 0.00 61 1021.1
20260903145403 88 2 0.0 6.0 0.00 0.00 0.00 61 1021.1
20260903144503 87 356 6.0 6.0 0.00 0.00 0.00 62 1021.1
20260903143603 87 356 3.0 6.0 0.00 0.00 0.00 61 1021.1
20260903142703 87 343 0.0 31.0 0.00 0.00 0.00 62 1021.1
20260903141803 86 357 5.0 28.0 0.00 0.00 0.00 62 1021.1
20260903140903 87 340 0.0 39.0 0.00 0.00 0.00 61 1021.1
20260903140005 87 360 4.0 31.0 0.00 0.00 0.00 62 1021.1
20260903135404 86 325 1.0 34.0 0.00 0.00 0.00 63 1021.1
20260903134503 86 320 34.0 60.0 0.00 0.00 0.00 64 1021.1
20260903133603 85 347 36.0 36.0 0.00 0.00 0.00 65 1021.1
20260903132704 83 321 0.0 29.0 0.00 0.00 0.00 65 1021.1
20260903131805 83 329 0.0 39.0 0.00 0.00 0.00 65 1021.1
20260903131115 83 313 0.0 37.0 0.00 0.00 0.00 65 1021.1
20260903130003 83 301 17.0 17.0 0.00 0.00 0.00 65 1021.1
20260903125614 83 233 0.0 43.0 0.00 0.00 0.00 66 1021.1
20260903124504 82 283 0.0 55.0 0.00 0.00 0.00 66 1021.1
20260903123603 83 321 35.0 69.0 0.00 0.00 0.00 65 1021.1
20260903122704 82 329 69.0 69.0 0.00 0.00 0.00 66 1021.1
20260903121803 82 300 6.0 39.0 0.00 0.00 0.00 66 1021.1
20260903120903 81 290 0.0 53.0 0.00 0.00 0.00 67 1022.1
20260903120003 81 339 36.0 76.0 0.00 0.00 0.00 66 1022.1
20260903115614 82 339 5.0 76.0 0.00 0.00 0.00 67 1022.1
20260903114503 82 250 0.0 24.0 0.00 0.00 0.00 66 1022.1
20260903113605 82 315 24.0 24.0 0.00 0.00 0.00 67 1022.1
20260903112914 82 225 0.0 37.0 0.00 0.00 0.00 66 1022.1
20260903111805 83 317 0.0 47.0 0.00 0.00 0.00 66 1022.1
20260903110905 85 65 0.0 34.0 0.00 0.00 0.00 65 1022.1
20260903110214 83 88 0.0 39.0 0.00 0.00 0.00 66 1022.1